Location: Champseau
(45.8333°N, 1.7667°E)
Time: 06:55:11
(UTC+00:00)

Cosmos 1140 Rocket - Pass Details

Date: 18 April 2021
Orbit: 745 x 767 km, 74.1° (Epoch: 05 May)

Event Time Altitude Azimuth Distance (km) Brightness Sun altitude
Exits shadow 21:18:30 37° 204° (SSW) 1,151 4.2 -23.4°
Maximum altitude 21:20:36 86° 291° (WNW) 753 3.4 -23.6°
Drops below altitude 10° 21:25:45 10° 21° (NNE) 2,270 6.3 -24.2°
Sets 21:28:07 0° 22° (NNE) 3,199 7.1 -24.5°
